{"data":{"norad_id":66728,"epoch":"2026-09-19T10:18:38.913120Z","epoch_age_seconds":110713,"freshness":"FRESH","line1":"1 66728U 25276BQ  26262.42961705  .00004127  00000+0  18580-3 0  9991","line2":"2 66728  97.4113 334.7608 0001159  78.6258 281.5108 15.21628074 44042","mean_motion":15.21628074,"eccentricity":0.0001159,"inclination_deg":97.4113,"raan_deg":334.7608,"arg_perigee_deg":78.6258,"mean_anomaly_deg":281.5108,"bstar":0.0001858,"rev_number":4404,"period_min":94.635477920342,"perigee_km":500.13208839986,"apogee_km":501.72665598494,"semimajor_km":6879.0663721924,"source":"CELESTRAK","updated_at":"2026-09-20T09:00:34.752341Z"}}